Camden, NC

3:12 PM EST on February 13, 2016 (GMT -0500)
Elizabeth City Cgas-Regional

Weather History for KECG - May, 2013

Change the Weather History Date:

Thursday, May 2, 2013

  Actual Average Record
Temperature  
Mean Temperature 60 °F 63 °F  
Max Temperature 68 °F 73 °F 94 °F (1942)
Min Temperature 51 °F 52 °F 40 °F (1945)
Degree Days  
Heating Degree Days 5 4  
Month to date heating degree days 8 8  
Since 1 July heating degree days 2818 3169  
Cooling Degree Days 0 2  
Month to date cooling degree days 0 4  
Year to date cooling degree days 54 46  
Growing Degree Days 10 (Base 50)    
Moisture  
Dew Point 53 °F    
Average Humidity 80    
Maximum Humidity 96    
Minimum Humidity 63    
Precipitation  
Precipitation T in 0.10 in 1.50 in (1954)
Month to date precipitation T 0.20  
Year to date precipitation 9.48 13.76  
Snow  
Snow 0.00 in - 0.00 in (2002)
Month to date snowfall 0.0  
Since 1 July snowfall T  
Snow Depth 0.00 in    
Sea Level Pressure  
Sea Level Pressure 30.32 in    
Wind  
Wind Speed 14 mph (NNE)    
Max Wind Speed 22 mph    
Max Gust Speed 25 mph    
Visibility 10 miles    
Events Rain    
T = Trace of Precipitation, MM = Missing Value Source: NWS Daily Summary

Daily Weather History Graph

Daily Weather History Graph

Search for Another Location

Airport or City:

Trip Planner

Search our weather history database for the weather conditions in past years. The results will help you decide how hot, cold, wet, or windy it might be!

Date:

Astronomy

May. 02, 2013 Rise Set
Actual Time 6:10 AM EDT 7:53 PM EDT
Civil Twilight 5:42 AM EDT 8:21 PM EDT
Nautical Twilight 5:09 AM EDT 8:54 PM EDT
Astronomical Twilight 4:34 AM EDT 9:30 PM EDT
Moon 1:42 AM EDT (5/2) 12:52 PM EDT (5/2)
Length of Visible Light 14h 38m
Length of Day
13h 43m
Waning Gibbous, 48% of the Moon is Illuminated
May 2
Waning Gibbous
May 9
New
May 18
First Quarter
May 25
Full
May 31
Last Quarter

Hourly Weather History & Observations

Time (EDT) Temp. Dew Point Humidity Pressure Visibility Wind Dir Wind Speed Gust Speed Precip Events Conditions
12:54 AM 57.0 °F 55.0 °F 93% 30.33 in 10.0 mi NNE 11.5 mph - N/A   Overcast
1:54 AM 57.9 °F 55.0 °F 90% 30.31 in 10.0 mi NNE 10.4 mph - N/A   Overcast
2:19 AM 57.2 °F 55.4 °F 94% 30.31 in 10.0 mi NNE 13.8 mph - N/A   Overcast
2:51 AM 57.2 °F 55.4 °F 94% 30.31 in 10.0 mi NNE 9.2 mph - N/A   Overcast
2:54 AM 57.9 °F 55.0 °F 90% 30.31 in 10.0 mi NNE 11.5 mph - N/A   Overcast
3:24 AM 57.2 °F 55.4 °F 94% 30.31 in 10.0 mi NNE 9.2 mph - N/A   Overcast
3:35 AM 57.2 °F 53.6 °F 88% 30.31 in 10.0 mi NNE 9.2 mph - N/A   Overcast
3:42 AM 57.2 °F 53.6 °F 88% 30.31 in 10.0 mi North 10.4 mph - N/A   Overcast
3:54 AM 57.0 °F 54.0 °F 89% 30.31 in 10.0 mi NNE 11.5 mph - N/A   Overcast
4:54 AM 57.0 °F 54.0 °F 89% 30.32 in 8.0 mi NNE 11.5 mph - 0.00 in Rain Light Rain
5:26 AM 55.4 °F 53.6 °F 94% 30.32 in 9.0 mi NNE 12.7 mph - 0.00 in   Overcast
5:43 AM 55.4 °F 53.6 °F 94% 30.31 in 8.0 mi NNE 11.5 mph - 0.00 in   Overcast
5:54 AM 55.9 °F 54.0 °F 93% 30.31 in 10.0 mi NNE 10.4 mph - 0.00 in   Overcast
6:54 AM 55.9 °F 53.1 °F 90% 30.32 in 10.0 mi NNE 10.4 mph - N/A   Overcast
7:54 AM 57.0 °F 53.1 °F 87% 30.33 in 10.0 mi NNE 13.8 mph - N/A   Overcast
8:54 AM 61.0 °F 52.0 °F 72% 30.33 in 10.0 mi NNE 15.0 mph - N/A   Clear
9:54 AM 63.0 °F 52.0 °F 67% 30.34 in 10.0 mi NE 15.0 mph - N/A   Clear
10:54 AM 64.0 °F 52.0 °F 65% 30.36 in 10.0 mi NNE 15.0 mph - N/A   Overcast
11:54 AM 64.0 °F 53.1 °F 67% 30.35 in 10.0 mi NNE 17.3 mph - N/A   Clear
12:54 PM 64.9 °F 53.1 °F 65% 30.34 in 10.0 mi NNE 18.4 mph - N/A   Scattered Clouds
1:54 PM 64.9 °F 54.0 °F 68% 30.33 in 10.0 mi NNE 13.8 mph - N/A   Mostly Cloudy
2:34 PM 66.2 °F 53.6 °F 64% 30.33 in 10.0 mi NE 19.6 mph - N/A   Mostly Cloudy
2:54 PM 66.9 °F 54.0 °F 63% 30.33 in 10.0 mi NE 19.6 mph 25.3 mph N/A   Scattered Clouds
3:54 PM 66.0 °F 54.0 °F 65% 30.32 in 10.0 mi NE 19.6 mph - N/A   Mostly Cloudy
4:38 PM 64.4 °F 53.6 °F 68% 30.32 in 10.0 mi NE 16.1 mph - N/A   Overcast
4:54 PM 64.0 °F 53.1 °F 67% 30.32 in 10.0 mi NE 19.6 mph - N/A   Overcast
5:08 PM 62.6 °F 53.6 °F 72% 30.32 in 10.0 mi NE 18.4 mph - N/A   Mostly Cloudy
5:54 PM 61.0 °F 53.1 °F 75% 30.31 in 10.0 mi NE 18.4 mph - N/A   Overcast
6:54 PM 60.1 °F 52.0 °F 75% 30.29 in 10.0 mi NNE 16.1 mph - N/A   Overcast
7:54 PM 57.0 °F 51.1 °F 81% 30.29 in 10.0 mi NNE 13.8 mph - N/A   Clear
8:54 PM 55.0 °F 50.0 °F 83% 30.29 in 10.0 mi NNE 13.8 mph - N/A   Clear
9:54 PM 54.0 °F 50.0 °F 86% 30.30 in 10.0 mi NNE 9.2 mph - N/A   Clear
10:54 PM 54.0 °F 51.1 °F 90% 30.29 in 10.0 mi North 6.9 mph - N/A   Clear
11:54 PM 51.1 °F 50.0 °F 96% 30.30 in 10.0 mi NNW 4.6 mph - N/A   Clear